Location: Newark
(51.3318°N, 0.0053°E)
Time: 13:23:13
(UTC+00:00)

RS-44 - Pass Details

Date: 04 July 2022
Orbit: 1175 x 1510 km, 82.5° (Epoch: 18 August)

Event Time Altitude Azimuth Distance (km) Brightness Sun altitude
Rises 22:40:39 0° 252° (WSW) 4,472 ? -13.6°
Reaches altitude 10° 22:44:33 10° 269° (W) 3,553 ? -13.8°
Maximum altitude 22:50:24 20° 312° (NW) 2,937 ? -14.1°
Drops below altitude 10° 22:56:27 10° 356° (N) 3,670 ? -14.4°
Sets 23:00:37 0° 13° (NNE) 4,667 ? -14.5°
